Location: Augustenthal
(51.7167°N, 10.2833°E)
Time: 09:10:58
(UTC+00:00)

Terra - Pass Details

Date: 18 May 2021
Orbit: 701 x 703 km, 98.2° (Epoch: 15 June)

Event Time Altitude Azimuth Distance (km) Brightness Sun altitude
Exits shadow 21:38:28 18° 195° (SSW) 1,703 3.4 -15.5°
Maximum altitude 21:41:45 45° 262° (W) 964 2.6 -15.7°
Drops below altitude 10° 21:46:20 10° 335° (NNW) 2,183 5.7 -15.9°
Sets 21:48:42 0° 341° (NNW) 3,106 7.0 -16.1°
